| time (UTC) | temp C | wind direction | speed KPH | gust KPH | rain 1hr cm | rain 24hr cm | rain mn cm | humidity % | barometer mb |
| 20260510190038 | 7 | 275 | 19.3 | 37.0 | 0.00 | 0.20 | 0.00 | 55 | 1015.9 |
| 20260510184538 | 7 | 294 | 16.1 | 45.1 | 0.00 | 0.20 | 0.00 | 51 | 1015.6 |
| 20260510183046 | 7 | 294 | 14.5 | 32.2 | 0.00 | 0.20 | 0.00 | 54 | 1015.5 |
| 20260510181543 | 8 | 315 | 8.0 | 41.8 | 0.00 | 0.20 | 0.00 | 61 | 1015.2 |
| 20260510180045 | 7 | 327 | 17.7 | 33.8 | 0.00 | 0.20 | 0.00 | 59 | 1015.2 |
| 20260510174537 | 7 | 30 | 16.1 | 40.2 | 0.00 | 0.20 | 0.00 | 56 | 1015.0 |
| 20260510173043 | 7 | 302 | 12.9 | 40.2 | 0.00 | 0.20 | 0.00 | 61 | 1015.0 |
| 20260510171542 | 7 | 277 | 17.7 | 33.8 | 0.00 | 0.20 | 0.00 | 59 | 1014.9 |
| 20260510170043 | 7 | 284 | 19.3 | 35.4 | 0.00 | 0.20 | 0.00 | 62 | 1014.9 |
| 20260510164548 | 7 | 326 | 17.7 | 32.2 | 0.00 | 0.20 | 0.00 | 59 | 1014.7 |
| 20260510163038 | 7 | 257 | 14.5 | 30.6 | 0.00 | 0.20 | 0.00 | 61 | 1014.7 |
| 20260510161537 | 6 | 288 | 11.3 | 33.8 | 0.00 | 0.20 | 0.00 | 63 | 1014.6 |
| 20260510160036 | 7 | 289 | 17.7 | 37.0 | 0.00 | 0.20 | 0.00 | 61 | 1014.6 |
| 20260510154547 | 7 | 317 | 17.7 | 35.4 | 0.00 | 0.20 | 0.00 | 59 | 1014.5 |
| 20260510153038 | 6 | 321 | 20.9 | 32.2 | 0.00 | 0.20 | 0.00 | 64 | 1014.3 |
| 20260510151542 | 6 | 323 | 20.9 | 37.0 | 0.00 | 0.20 | 0.00 | 62 | 1014.0 |
| 20260510150043 | 6 | 316 | 19.3 | 32.2 | 0.00 | 0.20 | 0.00 | 62 | 1013.8 |
| 20260510144550 | 6 | 324 | 19.3 | 35.4 | 0.00 | 0.20 | 0.00 | 66 | 1013.5 |
| 20260510143054 | 6 | 283 | 16.1 | 32.2 | 0.00 | 0.20 | 0.00 | 66 | 1013.4 |
| 20260510141537 | 5 | 329 | 20.9 | 32.2 | 0.00 | 0.20 | 0.00 | 71 | 1013.2 |
| 20260510140042 | 5 | 320 | 12.9 | 33.8 | 0.00 | 0.20 | 0.00 | 69 | 1013.1 |
| 20260510134538 | 5 | 348 | 17.7 | 33.8 | 0.00 | 0.20 | 0.00 | 69 | 1013.1 |
| 20260510133037 | 4 | 313 | 14.5 | 29.0 | 0.00 | 0.20 | 0.00 | 73 | 1012.8 |
| 20260510131548 | 3 | 309 | 16.1 | 30.6 | 0.00 | 0.20 | 0.00 | 76 | 1012.8 |
| 20260510130043 | 3 | 323 | 17.7 | 30.6 | 0.00 | 0.20 | 0.00 | 78 | 1012.5 |
| 20260510124540 | 3 | 286 | 9.7 | 27.4 | 0.00 | 0.20 | 0.00 | 79 | 1012.3 |
| 20260510123038 | 3 | 265 | 12.9 | 29.0 | 0.00 | 0.20 | 0.00 | 78 | 1012.2 |
| 20260510121539 | 2 | 275 | 9.7 | 32.2 | 0.00 | 0.20 | 0.00 | 80 | 1012.1 |
| 20260510120044 | 2 | 268 | 11.3 | 24.1 | 0.00 | 0.20 | 0.00 | 79 | 1011.8 |
| 20260510114542 | 2 | 274 | 8.0 | 25.7 | 0.00 | 0.20 | 0.00 | 80 | 1011.5 |
| 20260510113040 | 1 | 269 | 9.7 | 22.5 | 0.00 | 0.20 | 0.00 | 82 | 1011.4 |
| 20260510111539 | 1 | 299 | 8.0 | 19.3 | 0.00 | 0.20 | 0.00 | 83 | 1011.1 |
| 20260510110038 | 1 | 273 | 9.7 | 20.9 | 0.00 | 0.20 | 0.00 | 84 | 1010.9 |
| 20260510104538 | 1 | 285 | 14.5 | 22.5 | 0.00 | 0.20 | 0.00 | 84 | 1010.6 |
| 20260510103037 | 1 | 282 | 11.3 | 25.7 | 0.00 | 0.20 | 0.00 | 84 | 1010.0 |
| 20260510101537 | 1 | 275 | 9.7 | 19.3 | 0.00 | 0.20 | 0.00 | 85 | 1009.7 |
| 20260510100040 | 1 | 314 | 6.4 | 20.9 | 0.00 | 0.20 | 0.00 | 84 | 1009.3 |
| 20260510094539 | 1 | 302 | 8.0 | 19.3 | 0.00 | 0.20 | 0.00 | 84 | 1009.1 |
| 20260510093038 | 1 | 319 | 11.3 | 20.9 | 0.00 | 0.20 | 0.00 | 84 | 1009.0 |
| 20260510091545 | 1 | 289 | 11.3 | 29.0 | 0.00 | 0.20 | 0.00 | 83 | 1008.8 |
| 20260510090053 | 1 | 322 | 14.5 | 25.7 | 0.00 | 0.20 | 0.00 | 82 | 1008.6 |
| 20260510084543 | 1 | 287 | 14.5 | 27.4 | 0.00 | 0.20 | 0.00 | 81 | 1008.6 |
| 20260510083038 | 1 | 274 | 9.7 | 25.7 | 0.00 | 0.20 | 0.00 | 82 | 1008.3 |
| 20260510081538 | 1 | 291 | 9.7 | 22.5 | 0.00 | 0.20 | 0.00 | 81 | 1008.2 |
| 20260510080045 | 1 | 286 | 6.4 | 20.9 | 0.00 | 0.20 | 0.00 | 82 | 1008.2 |
| 20260510074547 | 1 | 290 | 8.0 | 19.3 | 0.00 | 0.20 | 0.00 | 83 | 1008.2 |
| 20260510073103 | 1 | 298 | 8.0 | 19.3 | 0.00 | 0.20 | 0.00 | 82 | 1008.0 |
| 20260510071543 | 1 | 277 | 9.7 | 17.7 | 0.00 | 0.20 | 0.00 | 82 | 1007.9 |
| 20260510070042 | 2 | 272 | 6.4 | 19.3 | 0.00 | 0.20 | 0.00 | 81 | 1007.8 |
| 20260510064554 | 2 | 321 | 9.7 | 25.7 | 0.00 | 0.20 | 0.00 | 80 | 1007.7 |
| 20260510063038 | 2 | 321 | 12.9 | 22.5 | 0.00 | 0.20 | 0.00 | 81 | 1007.6 |
| 20260510061537 | 2 | 271 | 11.3 | 24.1 | 0.00 | 0.20 | 0.00 | 81 | 1007.4 |
| 20260510060038 | 2 | 281 | 12.9 | 25.7 | 0.00 | 0.20 | 0.00 | 80 | 1007.6 |
| 20260510054544 | 2 | 292 | 9.7 | 19.3 | 0.00 | 0.20 | 0.00 | 80 | 1007.3 |
| 20260510053045 | 3 | 284 | 11.3 | 20.9 | 0.00 | 0.20 | 0.00 | 79 | 1007.2 |
| 20260510051548 | 3 | 303 | 9.7 | 24.1 | 0.00 | 0.20 | 0.00 | 78 | 1007.0 |
| 20260510050037 | 3 | 301 | 12.9 | 24.1 | 0.00 | 0.20 | 0.00 | 78 | 1007.0 |
| 20260510044537 | 4 | 286 | 11.3 | 27.4 | 0.00 | 0.20 | 0.00 | 74 | 1006.6 |
| 20260510043044 | 4 | 313 | 6.4 | 20.9 | 0.00 | 0.20 | 0.00 | 74 | 1006.6 |
| 20260510041542 | 5 | 288 | 8.0 | 17.7 | 0.00 | 0.20 | 0.00 | 73 | 1006.4 |
| 20260510040045 | 5 | 76 | 6.4 | 12.9 | 0.00 | 0.20 | 0.00 | 72 | 1006.3 |
| 20260510034549 | 5 | 325 | 4.8 | 16.1 | 0.00 | 0.20 | 0.20 | 71 | 1006.1 |
| 20260510033040 | 5 | 280 | 6.4 | 14.5 | 0.00 | 0.20 | 0.20 | 70 | 1006.0 |
| 20260510031544 | 6 | 297 | 6.4 | 12.9 | 0.00 | 0.20 | 0.20 | 71 | 1005.6 |
| 20260510030042 | 6 | 278 | 4.8 | 14.5 | 0.00 | 0.20 | 0.20 | 73 | 1005.9 |
| 20260510024542 | 6 | 294 | 6.4 | 16.1 | 0.00 | 0.20 | 0.20 | 72 | 1005.7 |
| 20260510023038 | 6 | 262 | 6.4 | 14.5 | 0.00 | 0.20 | 0.20 | 74 | 1005.7 |
| 20260510021538 | 6 | 262 | 4.8 | 20.9 | 0.00 | 0.20 | 0.20 | 74 | 1005.6 |
| 20260510020044 | 6 | 330 | 11.3 | 17.7 | 0.00 | 0.20 | 0.20 | 72 | 1005.4 |
| 20260510014538 | 6 | 318 | 8.0 | 16.1 | 0.00 | 0.20 | 0.20 | 74 | 1005.1 |
| 20260510013037 | 7 | 319 | 6.4 | 19.3 | 0.00 | 0.20 | 0.20 | 74 | 1004.6 |
| 20260510011541 | 7 | 327 | 9.7 | 20.9 | 0.00 | 0.20 | 0.20 | 76 | 1004.0 |
| 20260510010044 | 7 | 329 | 16.1 | 22.5 | 0.00 | 0.20 | 0.20 | 75 | 1003.7 |
| 20260510004540 | 7 | 312 | 12.9 | 22.5 | 0.00 | 0.20 | 0.20 | 79 | 1003.6 |
| 20260510003046 | 8 | 317 | 17.7 | 30.6 | 0.00 | 0.20 | 0.20 | 76 | 1003.4 |
| 20260510001543 | 9 | 329 | 24.1 | 32.2 | 0.00 | 0.20 | 0.20 | 76 | 1002.9 |
| 20260510000046 | 10 | 313 | 11.3 | 20.9 | 0.00 | 0.20 | 0.20 | 76 | 1002.8 |
| 20260509234541 | 10 | 267 | 11.3 | 33.8 | 0.00 | 0.20 | 0.20 | 78 | 1002.4 |
| 20260509233038 | 10 | 278 | 14.5 | 24.1 | 0.00 | 0.20 | 0.20 | 83 | 1002.2 |
| 20260509231538 | 10 | 261 | 12.9 | 17.7 | 0.00 | 0.20 | 0.20 | 87 | 1001.9 |
| 20260509230038 | 10 | 269 | 11.3 | 22.5 | 0.00 | 0.20 | 0.20 | 89 | 1001.8 |
| 20260509224534 | 10 | 245 | 12.9 | 20.9 | 0.00 | 0.20 | 0.20 | 89 | 1001.5 |
| 20260509223045 | 10 | 242 | 8.0 | 16.1 | 0.00 | 0.20 | 0.20 | 91 | 1001.2 |
| 20260509221543 | 10 | 253 | 8.0 | 22.5 | 0.00 | 0.20 | 0.20 | 90 | 1001.1 |
| 20260509220043 | 10 | 252 | 9.7 | 22.5 | 0.13 | 0.20 | 0.20 | 90 | 1001.0 |
| 20260509214605 | 9 | 267 | 8.0 | 17.7 | 0.15 | 0.20 | 0.20 | 91 | 1001.0 |
| 20260509213038 | 8 | 272 | 8.0 | 14.5 | 0.20 | 0.20 | 0.20 | 93 | 1001.4 |
| 20260509211538 | 7 | 278 | 9.7 | 20.9 | 0.20 | 0.20 | 0.20 | 94 | 1001.5 |
| 20260509210045 | 7 | 242 | 17.7 | 40.2 | 0.08 | 0.08 | 0.08 | 92 | 1001.9 |
| 20260509204542 | 10 | 284 | 27.4 | 40.2 | 0.05 | 0.05 | 0.05 | 83 | 1001.7 |
| 20260509203042 | 12 | 240 | 14.5 | 32.2 | 0.00 | 0.00 | 0.00 | 73 | 1000.5 |
| 20260509201538 | 12 | 228 | 20.9 | 40.2 | 0.00 | 0.00 | 0.00 | 66 | 999.6 |
| 20260509200045 | 12 | 213 | 33.8 | 51.5 | 0.00 | 0.00 | 0.00 | 64 | 1000.0 |
| 20260509194550 | 14 | 210 | 29.0 | 53.1 | 0.00 | 0.00 | 0.00 | 57 | 1000.1 |
| 20260509193043 | 15 | 243 | 29.0 | 38.6 | 0.00 | 0.00 | 0.00 | 57 | 1000.0 |
| 20260509191544 | 15 | 215 | 19.3 | 53.1 | 0.00 | 0.00 | 0.00 | 59 | 1000.1 |